Change the Weather History Date:

Monday, November 18, 2013

  Actual Average Record
Temperature  
Mean Temperature 19 °F -  
Max Temperature 21 °F 34 °F 53 °F (2014)
Min Temperature 17 °F 26 °F 10 °F (2011)
Degree Days  
Heating Degree Days 46    
Moisture  
Dew Point -5 °F    
Average Humidity 36    
Maximum Humidity 47    
Minimum Humidity 30    
Precipitation  
Precipitation 0.00 in - - ()
Sea Level Pressure  
Sea Level Pressure 30.10 in    
Wind  
Wind Speed 17 mph (North)    
Max Wind Speed 23 mph    
Max Gust Speed 38 mph    
Visibility 10 miles    
Events      
Averages and records for this station are not official NWS values.
T = Trace of Precipitation, MM = Missing Value Source: NWS Daily Summary

Daily Weather History Graph

Daily Weather History Graph

Search for Another Location

Airport or City:

Trip Planner

Search our weather history database for the weather conditions in past years. The results will help you decide how hot, cold, wet, or windy it might be!

Date:

Astronomy

Nov. 18, 2013 Rise Set
Actual Time 9:05 AM AKST 4:20 PM AKST
Civil Twilight 8:14 AM AKST 5:10 PM AKST
Nautical Twilight 7:21 AM AKST 6:03 PM AKST
Astronomical Twilight 6:32 AM AKST 6:52 PM AKST
Moon 5:24 PM AKST (11/18) 10:07 AM AKST (11/18)
Length of Visible Light 8h 55m
Length of Day
7h 14m
Full, 98% of the Moon is Illuminated
Nov 18
Full
Nov 25
Last Quarter
Dec 2
New
Dec 9
First Quarter
Dec 17
Full

Hourly Weather History & Observations

Time (AKST) Temp. Windchill Dew Point Humidity Pressure Visibility Wind Dir Wind Speed Gust Speed Precip Events Conditions
12:53 AM 19.0 °F 4.5 °F -2.0 °F 40% 30.13 in 10.0 mi North 16.1 mph 23.0 mph N/A   Unknown
1:53 AM 18.0 °F 3.6 °F -0.9 °F 44% 30.12 in 10.0 mi NNE 15.0 mph 23.0 mph N/A   Unknown
3:53 AM 18.0 °F 2.6 °F -2.0 °F 41% 30.11 in 10.0 mi NNE 17.3 mph 25.3 mph N/A   Unknown
4:53 AM 18.0 °F 3.6 °F -0.9 °F 44% 30.10 in 10.0 mi North 15.0 mph 27.6 mph N/A   Unknown
5:53 AM 19.0 °F 4.5 °F -2.9 °F 38% 30.10 in 10.0 mi NNE 16.1 mph 28.8 mph N/A   Unknown
6:53 AM 17.1 °F -0.6 °F -0.0 °F 47% 30.10 in 10.0 mi NE 23.0 mph 36.8 mph N/A   Unknown
7:53 AM 18.0 °F 1.3 °F -2.0 °F 41% 30.10 in 10.0 mi North 20.7 mph 27.6 mph N/A   Unknown
8:53 AM 19.0 °F 5.6 °F -2.0 °F 40% 30.11 in 10.0 mi North 13.8 mph 24.2 mph N/A   Unknown
10:53 AM 19.9 °F 6.7 °F -0.9 °F 40% 30.12 in 10.0 mi North 13.8 mph 21.9 mph N/A   Clear
11:53 AM 21.0 °F 5.7 °F -5.1 °F 32% 30.11 in 10.0 mi NNW 19.6 mph 28.8 mph N/A   Unknown
12:53 PM 19.9 °F 3.5 °F -5.1 °F 33% 30.10 in 10.0 mi NW 21.9 mph 38.0 mph N/A   Unknown
1:53 PM 19.9 °F 3.2 °F -5.1 °F 33% 30.10 in 10.0 mi NW 23.0 mph 38.0 mph N/A   Unknown
2:53 PM 19.9 °F 5.2 °F -6.0 °F 32% 30.09 in 10.0 mi NW 17.3 mph 38.0 mph N/A   Unknown
3:53 PM 19.9 °F 4.8 °F -7.1 °F 30% 30.09 in 10.0 mi NW 18.4 mph 34.5 mph N/A   Unknown
4:53 PM 19.0 °F 2.0 °F -7.1 °F 31% 30.08 in 10.0 mi NW 23.0 mph 34.5 mph N/A   Unknown
5:53 PM 19.0 °F 6.1 °F -7.1 °F 31% 30.08 in 10.0 mi NNW 12.7 mph 29.9 mph N/A   Unknown
6:53 PM 19.0 °F 3.2 °F -8.0 °F 30% 30.08 in 10.0 mi NNW 19.6 mph 34.5 mph N/A   Unknown
7:53 PM 19.0 °F 4.0 °F -8.0 °F 30% 30.09 in 10.0 mi NW 17.3 mph 29.9 mph N/A   Unknown
8:53 PM 18.0 °F 3.1 °F -8.0 °F 31% 30.09 in 10.0 mi NNW 16.1 mph 25.3 mph N/A   Unknown
9:53 PM 18.0 °F 4.2 °F -6.0 °F 35% 30.09 in 10.0 mi North 13.8 mph 21.9 mph N/A   Unknown
10:53 PM 18.0 °F 6.9 °F -7.1 °F 33% 30.09 in 10.0 mi North 9.2 mph - N/A   Unknown
11:53 PM 17.1 °F 2.0 °F -7.1 °F 34% 30.08 in 10.0 mi North 16.1 mph 25.3 mph N/A   Unknown